Tracking 35275 objects as of 8-Sep-2026
HD Live streaming from Space Station
objects crossing your sky now

DIAMANT DEB


DIAMANT DEB is no longer on orbit


NORAD ID: 1938
Int'l Code: 1965-096C
Launch date: November 26, 1965
Source: France (FR)
Launch site: HAMMA GUIRA SPACE TRACK RANGE (HGSTR)
Decay date: 1967-03-25

Note: This is SATELLITE DEBRIS
Your satellite tracking list
Your tracking list is empty




NASA's NSSDC Master Catalog

Two Line Element Set (TLE):
1 01938U 65096  C 67061.16483880  .00850232 +00000-0 +00000-0 0  9995
2 01938 034.2556 023.9387 0238696 270.1760 087.1515 14.83066319063790
Source of the keplerian elements: AFSPC